This is the latest recevied weather packets stored in our database for station/object KC0AFB. If no packets are shown the sender has not sent any weather packets the latest 10 day(s).
| Time | Temp. | Humidity | Pressure | Rain* | Wind** | Luminosity | Snow |
|---|---|---|---|---|---|---|---|
| 1778034986 | 2.22° C | 55% | 1016.6 hPa | 0 mm | - | 0 W/m² | - |
| 1778034684 | 2.22° C | 55% | 1016.3 hPa | 0 mm | - | 0 W/m² | - |
| 1778034381 | 2.22° C | 55% | 1016.2 hPa | 0 mm | - | 0 W/m² | - |
| 1778034079 | 2.22° C | 54% | 1016.4 hPa | 0 mm | - | 0 W/m² | - |
| 1778033776 | 2.22° C | 55% | 1016 hPa | 0 mm | - | 0 W/m² | - |
| 1778033473 | 2.22° C | 55% | 1016 hPa | 0 mm | - | 0 W/m² | - |
| 1778033170 | 2.22° C | 55% | 1016.1 hPa | 0 mm | - | 0 W/m² | - |
| 1778032868 | 2.22° C | 55% | 1016.2 hPa | 0 mm | - | 1 W/m² | - |
| 1778032565 | 2.22° C | 56% | 1016.2 hPa | 0 mm | - | 2 W/m² | - |
| 1778032262 | 2.22° C | 56% | 1016 hPa | 0 mm | - | 4 W/m² | - |
| 1778031959 | 2.22° C | 55% | 1015.7 hPa | 0 mm | - | 6 W/m² | - |
| 1778031654 | 2.22° C | 55% | 1015.8 hPa | 0 mm | - | 11 W/m² | - |
| 1778031353 | 2.78° C | 54% | 1015.8 hPa | 0 mm | - | 14 W/m² | - |
| 1778031049 | 2.78° C | 53% | 1015.8 hPa | 0 mm | - | 16 W/m² | - |
| 1778030746 | 3.33° C | 53% | 1015.8 hPa | 0 mm | - | 18 W/m² | - |
| 1778030443 | 3.89° C | 52% | 1015.8 hPa | 0 mm | - | 23 W/m² | - |
| 1778030141 | 3.89° C | 51% | 1015.6 hPa | 0 mm | - | 29 W/m² | - |
| 1778029836 | 3.89° C | 51% | 1015.4 hPa | 0 mm | - | 37 W/m² | - |
| 1778029531 | 4.44° C | 50% | 1015.6 hPa | 0 mm | - | 36 W/m² | - |
| 1778029227 | 4.44° C | 49% | 1015.5 hPa | 0 mm | - | 47 W/m² | - |
| 1778028924 | 4.44° C | 50% | 1015.6 hPa | 0 mm | - | 52 W/m² | - |
| 1778028620 | 4.44° C | 51% | 1015.5 hPa | 0 mm | - | 64 W/m² | - |
| 1778028318 | 3.89° C | 50% | 1015.6 hPa | 0 mm | - | 59 W/m² | - |
| 1778028015 | 3.89° C | 51% | 1015.5 hPa | 0 mm | - | 60 W/m² | - |
| 1778027711 | 3.89° C | 51% | 1015.5 hPa | 0 mm | - | 57 W/m² | - |
* Rain latest hour (hover to see other rain measurements)
** Current wind speed in m/s (hover to see current wind gust speed)